Hourly Data Report for March 18, 2003

SHERBROOKE A
QUEBEC

45°26'00.000" N
71°41'00.000" W
241.40 m
7028124
71610
YSC

Download Data

Hourly Data (March 2003)
Hourly Data Report for March 18, 2003
TIME
LST
Temp Definition
°C
Dew Point Definition
°C
Rel Hum Definition
%
Precip. Amount Definition
mm

Wind Dir Definition
10's deg

Wind Spd Definition
km/h
Visibility Definition
km
Stn Press Definition
kPa
Hmdx Definition


Wind Chill Definition


Weather Definition


00:00 2.2 -1.5 76   27 11 5.6 98.16      
01:00 1.2 -2.8 75   24 7 5.6 98.15      
02:00 1.0 -2.8 76   28 9 4.8 98.17      
03:00 0.6 -3.6 73   21 4 8.0 98.18      
04:00 0.5 -4.8 68   34 4 15.0 98.23      
05:00 -0.6 -6.6 64   32 13 15.0 98.29   -5  
06:00 -1.9 -7.3 67   30 6 15.0 98.38   -4  
07:00 -1.6 -7.5 64   32 13 15.0 98.43   -6  
08:00 -1.7 -7.9 63   32 22 24.1 98.49   -8 Mainly Clear
09:00 -1.0 -8.4 57   32 11 24.1 98.57   -5 Mainly Clear
10:00 -0.2 -10.0 48   32 15 24.1 98.62   -5 Clear
11:00 0.3 -11.3 41   31 22 24.1 98.65     Clear
12:00 0.6 -12.3 37   32 17 24.1 98.66     Clear
13:00 0.4 -13.4 35   31 19 24.1 98.68     Clear
14:00 0.4 -13.4 35   29 17 24.1 98.73     Clear
15:00 0.5 -15.0 30   34 17 24.1 98.78     Clear
16:00 -0.1 -16.1 29   32 19 24.1 98.82   -5 Clear
17:00 -0.6 -17.2 27   32 19 24.1 98.89   -6 Clear
18:00 -1.8 -17.6 29   32 13 15.0 98.98   -6  
19:00 -2.1 -18.3 28   34 11 15.0 99.08   -6  
20:00 -3.1 -18.5 29   35 11 15.0 99.17   -7  
21:00 -3.7 -19.6 28   2 11 15.0 99.26   -8  
22:00 -4.6 -19.9 29   1 20 15.0 99.37   -11  
23:00 -6.0 -19.5 34   3 11 15.0 99.44   -11  

Notes on Data Quality.

Legend

  • E = Estimated
  • M = Missing
  • NA = Not Available*
  • [empty] = Indicates an unobserved value
Date modified: